Flag for Germany Weather past 2 weeks in Waiblingen, Baden-Württemberg, Germany

Now
27 °F

Light snow. Ice fog.


Feels Like: 16 °F
Forecast: 8 / 29 °F
Wind: 12 mph from North

Location: Stuttgart-Echterdingen

Current Time: Dec 28, 2014 at 8:34:56 AM

Latest Report: Dec 28, 2014 at 8:20 AM


Visibility: 2 mi

Pressure: 29.77 "Hg

Humidity: 93%

Dew point: 25 °F

Location of WaiblingenLocation

Historic Weather in Waiblingen — Graph

°F

Waiblingen temperature yesterday

Maximum temperature yesterday: 36 °F (at 1:50 PM)
Minimum temperature yesterday: 27 °F (at 1:50 AM)
Average temperature yesterday: 33 °F

Past Weeks' High & Low Weather Summary

 TemperatureHumidityPressure
High54 °F (Dec 13, 3:20 PM)100% (Dec 14, 2:50 PM)30.51 "Hg (Dec 14, 2:50 PM)
Low27 °F (Dec 27, 1:50 AM)38% (Dec 23, 2:20 PM)29.42 "Hg (Dec 27, 3:50 PM)
Average42 °F82%30.09 "Hg
* Reported Dec 13 7:20 AM — Dec 28 7:20 AM, Waiblingen, Weather by CustomWeather, © 2014

Note: Actual official high and low records may vary slightly from our data, if they occured in-between our weather recording intervals... More about our weather records

Advertising

Waiblingen weather history for previous 24 hours

 ConditionsComfort  
Time TempWeatherWind HumidityBarometerVisibility
7:20 AM
Dec 28
27 °FSnow. Ice fog.10 mph93%29.74 "Hg1 mi
6:50 AM27 °FSnow. Ice fog.10 mph93%29.71 "Hg1 mi
6:20 AM27 °FLight snow. Ice fog.10 mph93%29.68 "Hg3 mi
5:50 AM28 °FLight snow. Passing clouds.9 mph86%29.65 "Hg4 mi
5:20 AM28 °FLight snow. Passing clouds.9 mph93%29.62 "Hg4 mi
4:20 AM28 °FLight snow. Ice fog.13 mph93%29.59 "Hg3 mi
3:50 AM30 °FLight snow. Ice fog.10 mph93%29.56 "Hg2 mi
3:20 AM30 °FLight snow. Ice fog.9 mph93%29.56 "Hg2 mi
2:50 AM30 °FLight snow. Ice fog.8 mph100%29.53 "Hg3 mi
2:20 AM32 °FLight snow. Ice fog.6 mph93%29.50 "Hg2 mi
1:50 AM32 °FLight snow. Ice fog.6 mph100%29.50 "Hg2 mi
1:20 AM32 °FSnow. Ice fog.6 mph100%29.50 "Hg1 mi
12:50 AM32 °FSnow. Ice fog.6 mph100%29.50 "Hg1 mi
12:20 AM32 °FChilly.2 mph100%29.47 "Hg4 mi
11:50 PM
Dec 27
32 °FLight snow. Partly cloudy.2 mph100%29.47 "Hg4 mi
11:20 PM32 °FLight snow. Partly cloudy.2 mph100%29.47 "Hg3 mi
10:50 PM32 °FLight snow. Partly cloudy.2 mph100%29.47 "Hg3 mi
10:20 PM32 °FLight snow. Partly cloudy.3 mph100%29.47 "Hg3 mi
9:50 PM34 °FLight snow. Partly cloudy.3 mph100%29.45 "Hg3 mi
9:20 PM34 °FSnow. Passing clouds.5 mph100%29.45 "Hg1 mi
8:50 PM32 °FLight rain. Passing clouds.1 mph100%29.45 "Hg3 mi
8:20 PM34 °FSnow. Passing clouds.6 mph93%29.42 "Hg1 mi
7:50 PM36 °FLight rain. Partly cloudy.9 mph87%29.42 "HgN/A
7:20 PM36 °FLight rain. Partly cloudy.7 mph87%29.42 "HgN/A
6:50 PM36 °FLight rain. Partly cloudy.8 mph87%29.42 "HgN/A
6:20 PM36 °FLight rain. Partly cloudy.8 mph87%29.42 "HgN/A
5:50 PM36 °FLight rain. Partly cloudy.8 mph87%29.42 "HgN/A
5:20 PM36 °FPartly cloudy.6 mph87%29.42 "HgN/A
4:50 PM36 °FLight rain. Partly cloudy.9 mph93%29.42 "HgN/A
4:20 PM36 °FLight rain. Broken clouds.8 mph93%29.42 "HgN/A
3:50 PM36 °FLight rain. Broken clouds.6 mph93%29.42 "HgN/A
3:20 PM36 °FPartly sunny.5 mph93%29.45 "HgN/A
2:50 PM36 °FPartly sunny.6 mph93%29.45 "HgN/A
2:20 PM36 °FScattered clouds.5 mph93%29.45 "HgN/A
1:50 PM36 °FScattered clouds.5 mph93%29.45 "HgN/A
1:20 PM34 °FLight snow. Partly sunny.6 mph100%29.45 "Hg6 mi
12:50 PM32 °FLight snow. Ice fog.7 mph100%29.45 "Hg2 mi
12:20 PM32 °FLight snow. Ice fog.8 mph100%29.47 "Hg1 mi
11:50 AM32 °FLight snow. Ice fog.10 mph100%29.47 "Hg2 mi
11:20 AM32 °FLight snow. Ice fog.7 mph100%29.50 "Hg1 mi
10:50 AM32 °FLight snow. Ice fog.10 mph100%29.53 "Hg1 mi
10:20 AM32 °FSnow. Ice fog.10 mph100%29.56 "Hg1 mi
9:50 AM32 °FSnow. Ice fog.10 mph100%29.56 "Hg1 mi
9:20 AM32 °FSnow. Ice fog.9 mph100%29.59 "Hg1 mi
8:50 AM30 °FLight snow. Ice fog.8 mph100%29.62 "Hg1 mi
8:20 AM30 °FSnow. Partly sunny.7 mph100%29.65 "Hg1 mi
Weather by CustomWeather, © 2014

See weather overviewHow to use our weather pages